Hartford, CT (06101)

7:16 PM EDT on September 04, 2015 (GMT -0400)
KCTEASTH16 | | Change Station
CLOSE
Current Station
Personal Weather Station
Location: East Hartford, CT
Elevation: 56 ft
Nearby Weather Stations

Elev 56 ft 41.79 °N, 72.63 °W | Updated 12 minutes ago

Clear
Clear
77.5 °F
Feels Like 79 °F
N
2.7
Wind Variable Wind from ESE

Today
High -- | Low -- °F
--% Chance of Precip.
Yesterday
High -- | Low -- °F
Precip. -- in
6:19 AM 7:19 PM
Waning Gibbous, 55% visible
Pressure 30.14 in
Visibility 10.0 miles
Clouds Clear
Heat Index 79 °F
Dew Point 54 °F
Humidity 44%
Rainfall 0.00 in
Snow Depth Not available.
UV 0 out of 12
Pollen 8.80 out of 12
Air Quality Not available.
Flu Activity Not available.
METAR KHFD 042253Z 08006KT 10SM CLR 26/16 A3014 RMK AO2 SLP206 T02560156
Pressure 30.14 in
Visibility 10.0 miles
Clouds Clear
Heat Index 79 °F
Dew Point 54 °F
Humidity 44%
Rainfall 0.00 in
Snow Depth Not available.
UV 0 out of 12
Pollen 8.80 out of 12
Air Quality Not available.
Flu Activity Not available.
METAR KHFD 042253Z 08006KT 10SM CLR 26/16 A3014 RMK AO2 SLP206 T02560156

10-Day Weather Forecast

×

Almanac

Astronomy

Sep. 04, 2015 Rise Set
Actual Time
Civil Twilight
Nautical Twilight
Astronomical Twilight
Moon
Length of Visible Light
Length of Day
Tomorrow will be .
, % of the Moon is Illuminated

Today's Extremes

State Highs State Lows

Community

WunderPhotos

Upload Photos

1,852,331 photos uploaded!

WunderBlogs® & News

Nearby

Air Quality

  Air Quality AQ Index Pollutant
Not available.

Snow Depth

Station Depth Elevation

Earthquake Activity

City Distance Mag. Time & Date
Minimum magnitude displayed is 2.5.

Coastal Water Temperatures

Place Temperature

Stations

Nearby Weather Stations

Station Location Temp. Windchill Dew Point Humidity Wind Precip. Elev Updated Type